Powrót do katalogu

STARLINK-1451

AktywnyŁącznośćVLEO
NORAD 45668·PAYLOAD·🇺🇸 United States

Wystrzelony Jun 4, 2020 z Cape Canaveral Space Force Station

Loading…

Następne Przeloty (najbliższe 24 godziny)

TLE

ŚwieżeSource: CelesTrak SupGP

Epoka: Sep 14, 2026, 13:36 UTC

1 45668C 20035M   26257.56715278  .00061006  00000+0  29256-2 0  2577
2 45668  53.0498 287.5807 0002273  45.0731 339.3934 15.18349157    10

Śledź STARLINK-1451 w czasie rzeczywistym z AllMySat

Download on the App Store